BRISAT

Last updated on Thu Oct 30 2025 00:02:50 GMT+0000 (Coordinated Universal Time)

1 41591U 16039A 25301.71602391 -.00000186 00000+0 00000+0 0 9993 2 41591 0.0158 260.2688 0002006 308.0140 237.3133 1.00270397 34280
UTC large
Height (km)
Speed (km/s)
/
Latitude / Longitude
Inclination (degrees)
Orbital Period (minutes)
Azimuth
Elevation
Range (km)
Doppler Factor

Next 0 passes for location: London (51.5072 / 0.1276)

Sorry there are no passes over London.